TimeMST,TemperatureF,Dew PointF,Humidity,Sea Level PressureIn,VisibilityMPH,Wind Direction,Wind SpeedMPH,Gust SpeedMPH,PrecipitationIn,Events,Conditions,WindDirDegrees,DateUTC
12:53 AM,39.0,14.0,36,30.10,10.0,SSW,5.8,-,N/A,,Clear,210,2012-12-05 07:53:00
1:53 AM,41.0,14.0,33,30.06,10.0,North,-9999.0,-,N/A,,Clear,0,2012-12-05 08:53:00
2:53 AM,50.0,24.1,36,29.98,10.0,WSW,20.7,27.6,N/A,,Clear,250,2012-12-05 09:53:00
3:53 AM,46.9,25.0,42,30.01,10.0,SW,11.5,-,N/A,,Clear,220,2012-12-05 10:53:00
4:53 AM,48.0,26.1,42,30.00,10.0,WSW,12.7,-,N/A,,Clear,250,2012-12-05 11:53:00
5:53 AM,46.9,25.0,42,29.96,10.0,South,11.5,-,N/A,,Clear,180,2012-12-05 12:53:00
7:53 AM,52.0,27.0,38,29.90,10.0,WSW,16.1,23.0,N/A,,Clear,240,2012-12-05 14:53:00
8:45 AM,53.6,26.6,35,29.99,10.0,West,35.7,43.7,N/A,,Clear,260,2012-12-05 15:45:00
8:53 AM,53.1,26.1,35,29.87,10.0,West,20.7,46.0,N/A,,Clear,260,2012-12-05 15:53:00
9:53 AM,54.0,27.0,35,29.88,10.0,West,10.4,-,N/A,,Scattered Clouds,280,2012-12-05 16:53:00
10:53 AM,59.0,26.1,28,29.84,10.0,West,11.5,19.6,N/A,,Clear,260,2012-12-05 17:53:00
11:53 AM,60.8,23.0,23,29.95,10.0,WSW,25.3,31.1,N/A,,Clear,250,2012-12-05 18:53:00
12:53 PM,59.0,19.9,22,29.81,10.0,West,19.6,31.1,N/A,,Clear,280,2012-12-05 19:53:00
1:53 PM,59.0,17.1,20,29.77,10.0,West,20.7,26.5,N/A,,Scattered Clouds,280,2012-12-05 20:53:00
2:53 PM,57.9,15.1,19,29.73,10.0,West,23.0,34.5,N/A,,Clear,270,2012-12-05 21:53:00
3:53 PM,55.9,17.1,22,29.75,10.0,West,21.9,33.4,N/A,,Partly Cloudy,270,2012-12-05 22:53:00
4:53 PM,53.1,19.0,26,29.77,10.0,West,18.4,-,N/A,,Partly Cloudy,280,2012-12-05 23:53:00
5:53 PM,50.0,19.9,31,29.80,10.0,West,10.4,-,N/A,,Clear,280,2012-12-06 00:53:00
6:53 PM,48.9,21.0,33,29.79,10.0,SE,5.8,-,N/A,,Clear,140,2012-12-06 01:53:00
7:53 PM,48.0,21.0,34,29.78,10.0,WSW,17.3,32.2,N/A,,Clear,240,2012-12-06 02:53:00
8:53 PM,46.0,21.0,37,29.79,10.0,SW,6.9,-,N/A,,Clear,220,2012-12-06 03:53:00
9:53 PM,48.0,23.0,37,29.79,10.0,North,5.8,-,N/A,,Clear,350,2012-12-06 04:53:00
10:53 PM,44.1,23.0,43,29.80,10.0,ENE,3.5,-,N/A,,Clear,60,2012-12-06 05:53:00
11:53 PM,44.1,23.0,43,29.79,10.0,NNW,8.1,-,N/A,,Clear,330,2012-12-06 06:53:00